TimeCDT,TemperatureF,Dew PointF,Humidity,Sea Level PressureIn,VisibilityMPH,Wind Direction,Wind SpeedMPH,Gust SpeedMPH,PrecipitationIn,Events,Conditions,WindDirDegrees,DateUTC
12:52 AM,42.1,32.0,67,30.34,10.0,North,5.8,-,N/A,,Scattered Clouds,360,2012-10-07 05:52:00
1:52 AM,41.0,33.1,73,30.35,10.0,North,6.9,-,N/A,,Scattered Clouds,350,2012-10-07 06:52:00
2:52 AM,42.1,30.9,65,30.34,10.0,NNE,10.4,-,N/A,,Mostly Cloudy,20,2012-10-07 07:52:00
3:52 AM,41.0,30.9,67,30.34,10.0,North,6.9,-,N/A,,Mostly Cloudy,10,2012-10-07 08:52:00
4:52 AM,41.0,32.0,70,30.32,10.0,North,8.1,-,0.00,,Mostly Cloudy,10,2012-10-07 09:52:00
5:52 AM,39.0,33.1,79,30.33,10.0,NNW,5.8,-,N/A,,Mostly Cloudy,330,2012-10-07 10:52:00
6:52 AM,39.9,33.1,77,30.33,10.0,NNW,6.9,-,N/A,,Mostly Cloudy,340,2012-10-07 11:52:00
7:52 AM,39.0,33.1,79,30.33,10.0,North,6.9,-,N/A,,Mostly Cloudy,350,2012-10-07 12:52:00
8:52 AM,41.0,34.0,76,30.35,10.0,North,10.4,-,N/A,,Scattered Clouds,350,2012-10-07 13:52:00
9:52 AM,44.1,34.0,68,30.36,10.0,Variable,4.6,-,N/A,,Scattered Clouds,0,2012-10-07 14:52:00
10:52 AM,48.9,32.0,52,30.34,10.0,North,9.2,-,N/A,,Mostly Cloudy,10,2012-10-07 15:52:00
11:52 AM,46.9,28.0,48,30.33,10.0,NE,3.5,-,N/A,,Mostly Cloudy,40,2012-10-07 16:52:00
12:52 PM,48.9,28.9,46,30.33,10.0,Calm,Calm,-,N/A,,Overcast,0,2012-10-07 17:52:00
1:52 PM,48.0,30.0,50,30.31,10.0,Calm,Calm,-,N/A,,Overcast,0,2012-10-07 18:52:00
2:52 PM,50.0,30.0,46,30.27,10.0,Variable,3.5,-,N/A,,Overcast,0,2012-10-07 19:52:00
3:52 PM,48.9,28.0,44,30.26,10.0,NNW,9.2,-,N/A,,Overcast,330,2012-10-07 20:52:00
4:52 PM,48.0,28.0,46,30.25,10.0,North,6.9,-,N/A,,Overcast,10,2012-10-07 21:52:00
5:52 PM,46.0,34.0,63,30.24,10.0,NE,4.6,-,0.00,Rain,Light Rain,50,2012-10-07 22:52:00
6:52 PM,45.0,37.9,76,30.24,10.0,Calm,Calm,-,0.00,,Overcast,0,2012-10-07 23:52:00
7:52 PM,45.0,36.0,71,30.25,10.0,North,6.9,-,N/A,,Overcast,10,2012-10-08 00:52:00
8:52 PM,45.0,37.9,76,30.26,10.0,Calm,Calm,-,N/A,,Overcast,0,2012-10-08 01:52:00
9:52 PM,43.0,37.0,80,30.25,10.0,Calm,Calm,-,N/A,,Mostly Cloudy,0,2012-10-08 02:52:00
10:52 PM,42.1,37.0,82,30.25,10.0,Calm,Calm,-,N/A,,Partly Cloudy,0,2012-10-08 03:52:00
11:52 PM,37.9,36.0,93,30.25,10.0,Calm,Calm,-,N/A,,Clear,0,2012-10-08 04:52:00